Location: ??
(34.7252°N, 135.5457°E)
Time: 09:00:15
(UTC+00:00)

BREEZE-M DEB (TANK) - Pass Details

Date: 24 September 2020
Orbit: 306 x 13932 km, 46.1° (Epoch: 23 October)

Event Time Altitude Azimuth Distance (km) Brightness Sun altitude
Exits shadow 19:17:46 26° 282° (WNW) 2,246 4.9 -19.2°
Maximum altitude 19:20:41 36° 326° (NNW) 1,312 4.0 -18.6°
Drops below altitude 10° 19:24:01 10° 37° (NE) 1,736 5.6 -18.0°
Sets 19:25:31 0° 49° (NE) 2,342 6.6 -17.7°
